Accueil
METAR-TAF:

METAR-TAF

Aéroports :

Bric della Croce

Turin, Italie

latitude: 45-02N, longitude: 007-44E, altitude: 709 m

Observation

Le bulletin a été fait il y a 1 heure et 15 minutes, à 19:55 UTC
Vent 4 kt de est
Température 13°C
Humidité 88%
Pression 1014 hPa

METAR: LIMK 121955Z AUTO 09004KT //// 13/11 Q1014

Heure: 23:10 (21:10 UTC)


TAF: absent

Observations et prévisions météorologiques de plus de 4000 aéroports (messages METAR et TAF).

Les stations disponibles sont représentées par des disques jaunes et rouges sur la carte.

Passer la souris dessus pour voir le nom de la station.

Cliquer dessus pour voir les observations et prévisions météorologiques.

Pour changer de carte: cliquez sur les boutons verts avec une croix noire pour zoomer, sur le bouton vert avec un tiret pour effectuer un zoom arrière, ou sur les flèches vertes pour les cartes adjacentes.


METAR-TAF: